THOR ABLESTAR DEB, 158

Orbit data source: Space-Track

THOR ABLESTAR DEB, 158 is space debris in LEO originally from a launch on Thu, 29 Jun 1961 UTC launched from the Air Force Eastern Test Range (AFETR). Debris objects in space refer to the collection of defunct objects orbiting the Earth. Examples of debris include non-operational satellites, rocket bodies, and fragments generated from explosions, collisions, or faulty payload assembly.

Loading next visibility...
Identifier
158, 1961-015AU
Orbit
LEO
Last TLE update
10 hours ago
Origin
Manufacturer
Unknown
Mission
Spacecraft
Bus & Motor
Unknown
Mass
Unknown
Launch date (UTC)
1961-06-29 (64 years ago)
Launch vehicle
Unknown
Launch site
Air Force Eastern Test Range (AFETR)
Object type
Payload
Rocket body
Debris
Shape & HBR
Unknown
Radar Cross Section
Medium (>0.1 m² and <1 m²)

Expand to show TLE details & history

TLE from 10 hours ago
0 THOR ABLESTAR DEB
1 00158U 61015AU  25141.59726798 -.00000016  00000-0  93374-4 0  9991
2 00158  67.0753 257.8194 0603444 122.0951 244.0115 12.66027387955773
Epoch: 2025-05-21T14:20Z
TLE epoch observation values (Epoch: 2025-05-21T14:20:03.953Z)
Latitude
-0.00003°
Longitude
163.32402°
Altitude
1,627.768 km
Speed
6.954 km/s
True Right ascension
17h 11m 16s
True Declination
0° 00' 00"
Sunlit
Object was in full shadow at epoch
Visualization orbit readout
Latitude
15.98326°
Longitude
169.46887°
Altitude
1,489.651 km
Speed
7.079 km/s
Apparent Right ascension
18h 52m 13s
Apparent Declination
-9° 33' 29"
Sunlit
Object is in full shadow
Visualization observer readout
Local Sidereal Time
08:53:34
Azimuth
49.946° ENE
Elevation
-49.403°
Doppler factor
1
Orbital elements
Apogee altitude
1,865.781 km
Perigee altitude
927.456 km
Semi-major axis
7,774.756 km
Eccentricity
0.06034
Inclination
67.0753°
RAAN
257.8194°
Arg. of periapsis
122.0951°
True anomaly
Unknown
Mean anomaly
244.0115°
Eccentric anomaly
Unknown
Mean motion
3.16602 °/min
Orbital period
113.71 mins
BSTAR
0.000093374
Loading maneuver chart data...
Loading SW <> Apogee altitude chart data...

THOR ABLESTAR DEB Visibility forecast

Observer location: undefined°, undefined°

Span
Click to sort rows by Start time (UTC) header in descending order
Start Az.
Max El. time (UTC)
Max El. Az.
Max El.
End time (UTC)
End Az.
9 mins2025-05-22 07:30:33.477Z140.53° SSE2025-05-22 07:35:33.477Z103.019° ESE17.432°2025-05-22 07:39:33.477Z69.065° E
14 mins2025-05-22 09:24:33.477Z209.045° SW2025-05-22 09:31:33.477Z244.499° WSW44.724°2025-05-22 09:38:33.477Z27.597° NE
8 mins2025-05-22 11:25:33.477Z279.941° WNW2025-05-22 11:29:33.477Z315.034° NNW18.252°2025-05-22 11:33:33.477Z354.593° N
8 mins2025-05-22 17:27:33.477Z359.115° N2025-05-22 17:31:33.477Z58.521° ENE27.63°2025-05-22 17:35:33.477Z107.816° ESE
9 mins2025-05-22 19:24:33.477Z304.202° NW2025-05-22 19:27:33.477Z260.267° W31.107°2025-05-22 19:33:33.477Z184.744° SSW
|